Zurück zum Katalog

THOR BURNER 2 R/B

AktivSSO
NORAD 4332·ROCKET BODY·🇺🇸 United States

Gestartet Feb 11, 1970 von Vandenberg Space Force Base

Loading…

Nächste Überflüge (nächste 24 Stunden)

TLE

AktuellSource: Space-Track

Epoche: Sep 14, 2026, 05:05 UTC

1 04332U 70012B   26257.21240216  .00000109  00000-0  56820-4 0  9997
2 04332  98.8420 169.5593 0058290 281.5832  77.8811 14.32053984947579

Verfolge THOR BURNER 2 R/B in Echtzeit mit AllMySat

Download on the App Store